Information on these data can be found in provided Readme document
Contact Info: Zachary Fasnacht (zachary.fasnacht@ssaihq.com); Nickolay Krotkov (nickolay.a.krotkov@nasa.gov); Lok Lamsal (lok.lamsal@nasa.gov)

FillValue: -999.
ScaleFactor: 1e15
Units: molecules/cm^2

Date(yyyy-mm-dd),City,Country,LonCenter,LatCenter,BoundingCoordinates,Median,Q1,Q3,Mean,Baseline_Median,Baseline_Q1,Baseline_Q3,Baseline_Mean,NumGoodSamples,NumTotalSamples
2015-01-01,Bishkek,Kyrgystan,74.5698,42.8746,[74.0698 42.3746 75.0698 43.3746],0.911,0.401,1.708,1.146,0.821,0.325,1.537,1.045,164.0,590.0
2015-01-02,Bishkek,Kyrgystan,74.5698,42.8746,[74.0698 42.3746 75.0698 43.3746],0.941,0.402,1.708,1.154,0.831,0.335,1.55,1.029,162.0,588.0
2015-01-03,Bishkek,Kyrgystan,74.5698,42.8746,[74.0698 42.3746 75.0698 43.3746],0.823,0.4,1.491,1.028,0.813,0.326,1.436,0.985,198.0,588.0
2015-01-04,Bishkek,Kyrgystan,74.5698,42.8746,[74.0698 42.3746 75.0698 43.3746],0.865,0.401,1.651,1.083,0.817,0.323,1.456,0.983,168.0,589.0
2015-01-05,Bishkek,Kyrgystan,74.5698,42.8746,[74.0698 42.3746 75.0698 43.3746],0.821,0.395,1.464,0.989,0.843,0.322,1.461,0.984,164.0,593.0
2015-01-06,Bishkek,Kyrgystan,74.5698,42.8746,[74.0698 42.3746 75.0698 43.3746],0.699,0.349,1.241,0.85,0.83,0.298,1.406,0.94,181.0,590.0
2015-01-07,Bishkek,Kyrgystan,74.5698,42.8746,[74.0698 42.3746 75.0698 43.3746],0.656,0.349,1.142,0.823,0.826,0.305,1.333,0.929,162.0,600.0
2015-01-08,Bishkek,Kyrgystan,74.5698,42.8746,[74.0698 42.3746 75.0698 43.3746],0.627,0.305,1.075,0.803,0.767,0.296,1.354,0.915,186.0,598.0
2015-01-09,Bishkek,Kyrgystan,74.5698,42.8746,[74.0698 42.3746 75.0698 43.3746],0.627,0.305,1.075,0.804,0.762,0.287,1.351,0.923,185.0,603.0
2015-01-10,Bishkek,Kyrgystan,74.5698,42.8746,[74.0698 42.3746 75.0698 43.3746],0.627,0.305,1.075,0.804,0.778,0.285,1.353,0.909,185.0,557.0
2015-01-11,Bishkek,Kyrgystan,74.5698,42.8746,[74.0698 42.3746 75.0698 43.3746],0.656,0.34,1.142,0.823,0.786,0.293,1.422,0.948,174.0,558.0
2015-01-12,Bishkek,Kyrgystan,74.5698,42.8746,[74.0698 42.3746 75.0698 43.3746],0.656,0.305,1.131,0.812,0.753,0.288,1.336,0.915,182.0,562.0
2015-01-13,Bishkek,Kyrgystan,74.5698,42.8746,[74.0698 42.3746 75.0698 43.3746],0.683,0.297,1.122,0.812,0.775,0.279,1.356,0.948,173.0,551.0
2015-01-14,Bishkek,Kyrgystan,74.5698,42.8746,[74.0698 42.3746 75.0698 43.3746],0.618,0.277,0.977,0.737,0.717,0.248,1.212,0.859,179.0,567.0
2015-01-15,Bishkek,Kyrgystan,74.5698,42.8746,[74.0698 42.3746 75.0698 43.3746],0.618,0.25,0.955,0.722,0.733,0.259,1.265,0.872,187.0,569.0
2015-01-16,Bishkek,Kyrgystan,74.5698,42.8746,[74.0698 42.3746 75.0698 43.3746],0.501,0.241,0.872,0.589,0.714,0.235,1.278,0.864,159.0,561.0
2015-01-17,Bishkek,Kyrgystan,74.5698,42.8746,[74.0698 42.3746 75.0698 43.3746],0.501,0.241,0.872,0.586,0.716,0.234,1.31,0.882,169.0,554.0
2015-01-18,Bishkek,Kyrgystan,74.5698,42.8746,[74.0698 42.3746 75.0698 43.3746],0.404,0.154,0.876,0.602,0.803,0.233,1.451,0.974,133.0,550.0
2015-01-19,Bishkek,Kyrgystan,74.5698,42.8746,[74.0698 42.3746 75.0698 43.3746],0.587,0.237,1.104,0.803,0.833,0.262,1.515,1.015,168.0,550.0
2015-01-20,Bishkek,Kyrgystan,74.5698,42.8746,[74.0698 42.3746 75.0698 43.3746],0.562,0.248,1.199,0.849,0.815,0.262,1.522,1.028,144.0,551.0
2015-01-21,Bishkek,Kyrgystan,74.5698,42.8746,[74.0698 42.3746 75.0698 43.3746],0.597,0.233,1.201,0.844,0.849,0.275,1.542,1.043,146.0,557.0
2015-01-22,Bishkek,Kyrgystan,74.5698,42.8746,[74.0698 42.3746 75.0698 43.3746],0.597,0.233,1.205,0.881,0.9,0.301,1.637,1.112,171.0,554.0
2015-01-23,Bishkek,Kyrgystan,74.5698,42.8746,[74.0698 42.3746 75.0698 43.3746],0.647,0.244,1.328,0.908,0.902,0.302,1.649,1.116,158.0,561.0
2015-01-24,Bishkek,Kyrgystan,74.5698,42.8746,[74.0698 42.3746 75.0698 43.3746],0.704,0.25,1.328,0.925,0.929,0.283,1.673,1.129,181.0,556.0
2015-01-25,Bishkek,Kyrgystan,74.5698,42.8746,[74.0698 42.3746 75.0698 43.3746],0.704,0.25,1.328,0.925,0.94,0.317,1.7,1.167,181.0,594.0
2015-01-26,Bishkek,Kyrgystan,74.5698,42.8746,[74.0698 42.3746 75.0698 43.3746],0.704,0.25,1.312,0.906,0.932,0.367,1.671,1.142,195.0,582.0
2015-01-27,Bishkek,Kyrgystan,74.5698,42.8746,[74.0698 42.3746 75.0698 43.3746],0.683,0.268,1.328,0.924,0.921,0.327,1.747,1.14,179.0,583.0
2015-01-28,Bishkek,Kyrgystan,74.5698,42.8746,[74.0698 42.3746 75.0698 43.3746],0.805,0.294,1.383,0.998,0.904,0.342,1.694,1.131,216.0,584.0
2015-01-29,Bishkek,Kyrgystan,74.5698,42.8746,[74.0698 42.3746 75.0698 43.3746],0.91,0.381,1.541,1.083,0.954,0.378,1.746,1.171,204.0,575.0
2015-01-30,Bishkek,Kyrgystan,74.5698,42.8746,[74.0698 42.3746 75.0698 43.3746],0.887,0.364,1.539,1.054,0.9,0.374,1.755,1.163,209.0,591.0
2015-01-31,Bishkek,Kyrgystan,74.5698,42.8746,[74.0698 42.3746 75.0698 43.3746],0.845,0.359,1.502,1.038,0.928,0.382,1.707,1.142,217.0,596.0
2015-02-01,Bishkek,Kyrgystan,74.5698,42.8746,[74.0698 42.3746 75.0698 43.3746],0.902,0.364,1.539,1.055,0.962,0.38,1.749,1.154,207.0,594.0
2015-02-02,Bishkek,Kyrgystan,74.5698,42.8746,[74.0698 42.3746 75.0698 43.3746],0.866,0.364,1.502,1.038,0.871,0.373,1.652,1.082,216.0,591.0
2015-02-03,Bishkek,Kyrgystan,74.5698,42.8746,[74.0698 42.3746 75.0698 43.3746],0.835,0.335,1.337,0.963,0.882,0.364,1.632,1.071,181.0,589.0
2015-02-04,Bishkek,Kyrgystan,74.5698,42.8746,[74.0698 42.3746 75.0698 43.3746],0.82,0.233,1.361,0.897,0.79,0.323,1.589,1.024,212.0,591.0
2015-02-05,Bishkek,Kyrgystan,74.5698,42.8746,[74.0698 42.3746 75.0698 43.3746],0.795,0.22,1.361,0.882,0.79,0.336,1.573,1.043,182.0,589.0
2015-02-06,Bishkek,Kyrgystan,74.5698,42.8746,[74.0698 42.3746 75.0698 43.3746],0.63,0.2,1.197,0.754,0.73,0.311,1.405,0.953,185.0,595.0
2015-02-07,Bishkek,Kyrgystan,74.5698,42.8746,[74.0698 42.3746 75.0698 43.3746],0.585,0.159,1.161,0.75,0.716,0.324,1.429,0.974,188.0,590.0
2015-02-08,Bishkek,Kyrgystan,74.5698,42.8746,[74.0698 42.3746 75.0698 43.3746],0.545,0.132,1.096,0.716,0.715,0.302,1.431,0.97,165.0,600.0
2015-02-09,Bishkek,Kyrgystan,74.5698,42.8746,[74.0698 42.3746 75.0698 43.3746],0.529,0.111,1.096,0.699,0.696,0.298,1.315,0.913,172.0,595.0
2015-02-10,Bishkek,Kyrgystan,74.5698,42.8746,[74.0698 42.3746 75.0698 43.3746],0.524,0.095,1.161,0.705,0.702,0.286,1.342,0.912,158.0,599.0
2015-02-11,Bishkek,Kyrgystan,74.5698,42.8746,[74.0698 42.3746 75.0698 43.3746],0.524,0.095,1.161,0.705,0.69,0.306,1.298,0.909,158.0,555.0
2015-02-12,Bishkek,Kyrgystan,74.5698,42.8746,[74.0698 42.3746 75.0698 43.3746],0.302,0.034,0.768,0.48,0.675,0.283,1.274,0.87,119.0,556.0
2015-02-13,Bishkek,Kyrgystan,74.5698,42.8746,[74.0698 42.3746 75.0698 43.3746],0.318,0.049,0.82,0.574,0.665,0.285,1.199,0.876,143.0,557.0
2015-02-14,Bishkek,Kyrgystan,74.5698,42.8746,[74.0698 42.3746 75.0698 43.3746],0.314,0.04,0.842,0.592,0.682,0.284,1.225,0.893,134.0,547.0
2015-02-15,Bishkek,Kyrgystan,74.5698,42.8746,[74.0698 42.3746 75.0698 43.3746],0.314,0.064,0.861,0.602,0.645,0.283,1.256,0.898,126.0,565.0
2015-02-16,Bishkek,Kyrgystan,74.5698,42.8746,[74.0698 42.3746 75.0698 43.3746],0.314,0.04,0.842,0.588,0.636,0.267,1.177,0.85,131.0,565.0
2015-02-17,Bishkek,Kyrgystan,74.5698,42.8746,[74.0698 42.3746 75.0698 43.3746],0.302,0.04,0.842,0.595,0.627,0.26,1.174,0.835,122.0,558.0
2015-02-18,Bishkek,Kyrgystan,74.5698,42.8746,[74.0698 42.3746 75.0698 43.3746],0.314,0.095,0.82,0.577,0.603,0.258,1.1,0.802,127.0,554.0
2015-02-19,Bishkek,Kyrgystan,74.5698,42.8746,[74.0698 42.3746 75.0698 43.3746],0.302,0.133,0.551,0.577,0.623,0.259,1.099,0.825,96.0,552.0
2015-02-20,Bishkek,Kyrgystan,74.5698,42.8746,[74.0698 42.3746 75.0698 43.3746],0.318,0.111,0.842,0.658,0.587,0.241,1.066,0.799,128.0,555.0
2015-02-21,Bishkek,Kyrgystan,74.5698,42.8746,[74.0698 42.3746 75.0698 43.3746],0.339,0.109,1.237,0.79,0.622,0.242,1.177,0.86,98.0,555.0
2015-02-22,Bishkek,Kyrgystan,74.5698,42.8746,[74.0698 42.3746 75.0698 43.3746],0.406,0.204,1.49,0.899,0.61,0.252,1.19,0.849,114.0,561.0
2015-02-23,Bishkek,Kyrgystan,74.5698,42.8746,[74.0698 42.3746 75.0698 43.3746],0.551,0.204,1.5,0.974,0.639,0.273,1.227,0.878,140.0,556.0
2015-02-24,Bishkek,Kyrgystan,74.5698,42.8746,[74.0698 42.3746 75.0698 43.3746],0.614,0.238,1.588,1.003,0.661,0.28,1.274,0.897,133.0,567.0
2015-02-25,Bishkek,Kyrgystan,74.5698,42.8746,[74.0698 42.3746 75.0698 43.3746],0.614,0.204,1.588,1.005,0.676,0.287,1.267,0.894,146.0,561.0
2015-02-26,Bishkek,Kyrgystan,74.5698,42.8746,[74.0698 42.3746 75.0698 43.3746],0.614,0.204,1.588,1.005,0.676,0.278,1.311,0.918,146.0,599.0
2015-02-27,Bishkek,Kyrgystan,74.5698,42.8746,[74.0698 42.3746 75.0698 43.3746],0.957,0.251,1.588,1.083,0.738,0.288,1.322,0.943,173.0,588.0
2015-02-28,Bishkek,Kyrgystan,74.5698,42.8746,[74.0698 42.3746 75.0698 43.3746],1.066,0.251,1.588,1.111,0.75,0.286,1.347,0.949,142.0,589.0
2015-03-01,Bishkek,Kyrgystan,74.5698,42.8746,[74.0698 42.3746 75.0698 43.3746],1.033,0.251,1.588,1.081,0.722,0.275,1.312,0.917,145.0,592.0
2015-03-02,Bishkek,Kyrgystan,74.5698,42.8746,[74.0698 42.3746 75.0698 43.3746],1.006,0.251,1.588,1.088,0.713,0.265,1.272,0.906,151.0,581.0
2015-03-03,Bishkek,Kyrgystan,74.5698,42.8746,[74.0698 42.3746 75.0698 43.3746],0.971,0.249,1.588,1.077,0.737,0.286,1.334,0.943,150.0,597.0
2015-03-04,Bishkek,Kyrgystan,74.5698,42.8746,[74.0698 42.3746 75.0698 43.3746],0.888,0.249,1.562,1.03,0.741,0.3,1.352,0.943,174.0,599.0
2015-03-05,Bishkek,Kyrgystan,74.5698,42.8746,[74.0698 42.3746 75.0698 43.3746],0.971,0.246,1.588,1.066,0.803,0.326,1.362,0.958,169.0,593.0
2015-03-06,Bishkek,Kyrgystan,74.5698,42.8746,[74.0698 42.3746 75.0698 43.3746],1.075,0.356,1.668,1.172,0.837,0.35,1.4,1.002,199.0,587.0
2015-03-07,Bishkek,Kyrgystan,74.5698,42.8746,[74.0698 42.3746 75.0698 43.3746],1.121,0.424,1.774,1.25,0.835,0.347,1.423,1.0,167.0,585.0
2015-03-08,Bishkek,Kyrgystan,74.5698,42.8746,[74.0698 42.3746 75.0698 43.3746],0.96,0.382,1.682,1.169,0.749,0.327,1.4,0.951,183.0,586.0
2015-03-09,Bishkek,Kyrgystan,74.5698,42.8746,[74.0698 42.3746 75.0698 43.3746],0.92,0.356,1.612,1.148,0.783,0.336,1.364,0.948,153.0,584.0
2015-03-10,Bishkek,Kyrgystan,74.5698,42.8746,[74.0698 42.3746 75.0698 43.3746],0.797,0.356,1.528,1.056,0.731,0.335,1.378,0.947,157.0,589.0
2015-03-11,Bishkek,Kyrgystan,74.5698,42.8746,[74.0698 42.3746 75.0698 43.3746],0.829,0.356,1.562,1.094,0.779,0.333,1.359,0.954,184.0,582.0
2015-03-12,Bishkek,Kyrgystan,74.5698,42.8746,[74.0698 42.3746 75.0698 43.3746],0.773,0.246,1.326,1.011,0.765,0.278,1.382,0.961,182.0,596.0
2015-03-13,Bishkek,Kyrgystan,74.5698,42.8746,[74.0698 42.3746 75.0698 43.3746],0.773,0.246,1.326,1.011,0.781,0.253,1.341,0.947,182.0,595.0
2015-03-14,Bishkek,Kyrgystan,74.5698,42.8746,[74.0698 42.3746 75.0698 43.3746],0.638,0.195,1.236,0.926,0.79,0.219,1.403,0.954,155.0,601.0
2015-03-15,Bishkek,Kyrgystan,74.5698,42.8746,[74.0698 42.3746 75.0698 43.3746],0.638,0.195,1.236,0.926,0.775,0.235,1.408,0.954,155.0,558.0
2015-03-16,Bishkek,Kyrgystan,74.5698,42.8746,[74.0698 42.3746 75.0698 43.3746],0.665,0.195,1.244,0.956,0.792,0.217,1.439,0.986,148.0,558.0
2015-03-17,Bishkek,Kyrgystan,74.5698,42.8746,[74.0698 42.3746 75.0698 43.3746],0.652,0.212,1.236,0.927,0.772,0.223,1.439,0.976,149.0,559.0
2015-03-18,Bishkek,Kyrgystan,74.5698,42.8746,[74.0698 42.3746 75.0698 43.3746],0.665,0.215,1.244,0.945,0.803,0.248,1.46,1.021,155.0,549.0
2015-03-19,Bishkek,Kyrgystan,74.5698,42.8746,[74.0698 42.3746 75.0698 43.3746],0.657,0.215,1.236,0.908,0.813,0.237,1.541,1.022,150.0,569.0
2015-03-20,Bishkek,Kyrgystan,74.5698,42.8746,[74.0698 42.3746 75.0698 43.3746],0.638,0.212,1.236,0.902,0.813,0.26,1.634,1.071,154.0,572.0
2015-03-21,Bishkek,Kyrgystan,74.5698,42.8746,[74.0698 42.3746 75.0698 43.3746],0.489,0.14,1.006,0.673,0.809,0.255,1.629,1.035,124.0,568.0
2015-03-22,Bishkek,Kyrgystan,74.5698,42.8746,[74.0698 42.3746 75.0698 43.3746],0.489,0.161,0.928,0.657,0.837,0.28,1.673,1.057,138.0,564.0
2015-03-23,Bishkek,Kyrgystan,74.5698,42.8746,[74.0698 42.3746 75.0698 43.3746],0.503,0.192,1.006,0.697,0.875,0.287,1.745,1.076,122.0,561.0
2015-03-24,Bishkek,Kyrgystan,74.5698,42.8746,[74.0698 42.3746 75.0698 43.3746],0.446,0.14,0.928,0.668,0.806,0.252,1.697,1.046,144.0,564.0
2015-03-25,Bishkek,Kyrgystan,74.5698,42.8746,[74.0698 42.3746 75.0698 43.3746],0.411,0.129,0.777,0.603,0.81,0.247,1.635,1.038,114.0,563.0
2015-03-26,Bishkek,Kyrgystan,74.5698,42.8746,[74.0698 42.3746 75.0698 43.3746],0.411,0.104,0.708,0.464,0.885,0.221,1.684,1.024,105.0,566.0
2015-03-27,Bishkek,Kyrgystan,74.5698,42.8746,[74.0698 42.3746 75.0698 43.3746],0.412,0.118,0.708,0.572,0.793,0.226,1.635,1.022,122.0,559.0
2015-03-28,Bishkek,Kyrgystan,74.5698,42.8746,[74.0698 42.3746 75.0698 43.3746],0.411,0.06,0.632,0.495,0.826,0.232,1.579,1.008,132.0,563.0
2015-03-29,Bishkek,Kyrgystan,74.5698,42.8746,[74.0698 42.3746 75.0698 43.3746],0.412,0.06,0.708,0.57,0.783,0.242,1.557,0.985,164.0,566.0
2015-03-30,Bishkek,Kyrgystan,74.5698,42.8746,[74.0698 42.3746 75.0698 43.3746],0.412,0.06,0.708,0.57,0.783,0.2,1.581,0.983,164.0,604.0
2015-03-31,Bishkek,Kyrgystan,74.5698,42.8746,[74.0698 42.3746 75.0698 43.3746],0.411,0.066,0.681,0.547,0.803,0.214,1.456,0.936,173.0,593.0
2015-04-01,Bishkek,Kyrgystan,74.5698,42.8746,[74.0698 42.3746 75.0698 43.3746],0.411,0.066,0.708,0.552,0.807,0.203,1.469,0.957,166.0,592.0
2015-04-02,Bishkek,Kyrgystan,74.5698,42.8746,[74.0698 42.3746 75.0698 43.3746],0.412,0.06,0.752,0.574,0.776,0.185,1.417,0.916,196.0,594.0
2015-04-03,Bishkek,Kyrgystan,74.5698,42.8746,[74.0698 42.3746 75.0698 43.3746],0.412,0.058,0.775,0.597,0.774,0.207,1.426,0.948,189.0,581.0
2015-04-04,Bishkek,Kyrgystan,74.5698,42.8746,[74.0698 42.3746 75.0698 43.3746],0.412,0.066,0.882,0.599,0.725,0.186,1.315,0.877,204.0,597.0
2015-04-05,Bishkek,Kyrgystan,74.5698,42.8746,[74.0698 42.3746 75.0698 43.3746],0.417,0.066,0.928,0.628,0.752,0.197,1.358,0.896,229.0,600.0
2015-04-06,Bishkek,Kyrgystan,74.5698,42.8746,[74.0698 42.3746 75.0698 43.3746],0.412,0.056,1.003,0.635,0.75,0.194,1.391,0.872,215.0,592.0
2015-04-07,Bishkek,Kyrgystan,74.5698,42.8746,[74.0698 42.3746 75.0698 43.3746],0.417,0.058,1.019,0.658,0.723,0.218,1.38,0.886,233.0,588.0
2015-04-08,Bishkek,Kyrgystan,74.5698,42.8746,[74.0698 42.3746 75.0698 43.3746],0.436,0.066,1.042,0.677,0.777,0.245,1.432,0.914,211.0,584.0
2015-04-09,Bishkek,Kyrgystan,74.5698,42.8746,[74.0698 42.3746 75.0698 43.3746],0.412,0.056,1.019,0.649,0.768,0.237,1.422,0.9,223.0,585.0
2015-04-10,Bishkek,Kyrgystan,74.5698,42.8746,[74.0698 42.3746 75.0698 43.3746],0.425,0.047,1.11,0.68,0.81,0.27,1.493,0.936,205.0,587.0
2015-04-11,Bishkek,Kyrgystan,74.5698,42.8746,[74.0698 42.3746 75.0698 43.3746],0.404,0.012,1.042,0.626,0.827,0.287,1.49,0.945,179.0,592.0
2015-04-12,Bishkek,Kyrgystan,74.5698,42.8746,[74.0698 42.3746 75.0698 43.3746],0.511,0.143,1.249,0.816,0.859,0.322,1.55,0.997,197.0,588.0
2015-04-13,Bishkek,Kyrgystan,74.5698,42.8746,[74.0698 42.3746 75.0698 43.3746],0.506,0.143,1.173,0.774,0.9,0.35,1.56,1.002,165.0,591.0
2015-04-14,Bishkek,Kyrgystan,74.5698,42.8746,[74.0698 42.3746 75.0698 43.3746],0.518,0.143,1.249,0.791,0.887,0.344,1.562,0.991,190.0,591.0
2015-04-15,Bishkek,Kyrgystan,74.5698,42.8746,[74.0698 42.3746 75.0698 43.3746],0.571,0.159,1.299,0.839,0.966,0.373,1.556,1.025,181.0,595.0
2015-04-16,Bishkek,Kyrgystan,74.5698,42.8746,[74.0698 42.3746 75.0698 43.3746],0.571,0.159,1.299,0.839,0.903,0.36,1.538,1.008,181.0,597.0
2015-04-17,Bishkek,Kyrgystan,74.5698,42.8746,[74.0698 42.3746 75.0698 43.3746],0.581,0.184,1.299,0.914,0.895,0.316,1.531,0.952,141.0,599.0
2015-04-18,Bishkek,Kyrgystan,74.5698,42.8746,[74.0698 42.3746 75.0698 43.3746],0.612,0.191,1.299,0.879,0.868,0.308,1.485,0.915,163.0,602.0
2015-04-19,Bishkek,Kyrgystan,74.5698,42.8746,[74.0698 42.3746 75.0698 43.3746],0.726,0.186,1.4,0.943,0.924,0.333,1.498,0.93,146.0,591.0
2015-04-20,Bishkek,Kyrgystan,74.5698,42.8746,[74.0698 42.3746 75.0698 43.3746],0.687,0.191,1.312,0.875,0.855,0.277,1.495,0.903,138.0,603.0
2015-04-21,Bishkek,Kyrgystan,74.5698,42.8746,[74.0698 42.3746 75.0698 43.3746],0.681,0.191,1.312,0.863,0.842,0.276,1.523,0.907,164.0,606.0
2015-04-22,Bishkek,Kyrgystan,74.5698,42.8746,[74.0698 42.3746 75.0698 43.3746],0.674,0.17,1.312,0.852,0.809,0.266,1.506,0.876,146.0,601.0
2015-04-23,Bishkek,Kyrgystan,74.5698,42.8746,[74.0698 42.3746 75.0698 43.3746],0.818,0.207,1.395,0.948,0.802,0.238,1.458,0.863,169.0,597.0
2015-04-24,Bishkek,Kyrgystan,74.5698,42.8746,[74.0698 42.3746 75.0698 43.3746],0.904,0.282,1.4,1.008,0.84,0.22,1.495,0.884,157.0,595.0
2015-04-25,Bishkek,Kyrgystan,74.5698,42.8746,[74.0698 42.3746 75.0698 43.3746],0.904,0.333,1.436,0.965,0.818,0.239,1.438,0.86,177.0,597.0
2015-04-26,Bishkek,Kyrgystan,74.5698,42.8746,[74.0698 42.3746 75.0698 43.3746],0.91,0.333,1.461,0.97,0.815,0.221,1.438,0.844,175.0,599.0
2015-04-27,Bishkek,Kyrgystan,74.5698,42.8746,[74.0698 42.3746 75.0698 43.3746],0.978,0.452,1.517,0.969,0.823,0.205,1.431,0.822,165.0,605.0
2015-04-28,Bishkek,Kyrgystan,74.5698,42.8746,[74.0698 42.3746 75.0698 43.3746],0.991,0.447,1.52,0.986,0.899,0.288,1.496,0.911,189.0,598.0
2015-04-29,Bishkek,Kyrgystan,74.5698,42.8746,[74.0698 42.3746 75.0698 43.3746],1.02,0.488,1.496,0.996,0.899,0.324,1.517,0.932,192.0,601.0
2015-04-30,Bishkek,Kyrgystan,74.5698,42.8746,[74.0698 42.3746 75.0698 43.3746],1.02,0.488,1.517,1.013,0.882,0.325,1.586,0.954,216.0,594.0
2015-05-01,Bishkek,Kyrgystan,74.5698,42.8746,[74.0698 42.3746 75.0698 43.3746],1.02,0.488,1.517,1.013,0.928,0.352,1.569,0.967,216.0,589.0
2015-05-02,Bishkek,Kyrgystan,74.5698,42.8746,[74.0698 42.3746 75.0698 43.3746],0.994,0.492,1.517,1.004,0.975,0.399,1.566,0.998,221.0,581.0
2015-05-03,Bishkek,Kyrgystan,74.5698,42.8746,[74.0698 42.3746 75.0698 43.3746],1.02,0.537,1.539,1.049,0.952,0.384,1.596,0.996,187.0,582.0
2015-05-04,Bishkek,Kyrgystan,74.5698,42.8746,[74.0698 42.3746 75.0698 43.3746],1.02,0.537,1.542,1.053,1.031,0.453,1.656,1.041,185.0,585.0
2015-05-05,Bishkek,Kyrgystan,74.5698,42.8746,[74.0698 42.3746 75.0698 43.3746],1.046,0.55,1.561,1.077,1.019,0.469,1.672,1.042,193.0,580.0
2015-05-06,Bishkek,Kyrgystan,74.5698,42.8746,[74.0698 42.3746 75.0698 43.3746],1.076,0.574,1.59,1.101,1.046,0.478,1.693,1.052,168.0,592.0
2015-05-07,Bishkek,Kyrgystan,74.5698,42.8746,[74.0698 42.3746 75.0698 43.3746],1.076,0.573,1.627,1.121,1.087,0.484,1.691,1.073,192.0,594.0
2015-05-08,Bishkek,Kyrgystan,74.5698,42.8746,[74.0698 42.3746 75.0698 43.3746],1.039,0.537,1.629,1.055,1.059,0.464,1.695,1.051,186.0,591.0
2015-05-09,Bishkek,Kyrgystan,74.5698,42.8746,[74.0698 42.3746 75.0698 43.3746],1.158,0.56,1.735,1.168,1.043,0.456,1.712,1.065,200.0,586.0
2015-05-10,Bishkek,Kyrgystan,74.5698,42.8746,[74.0698 42.3746 75.0698 43.3746],1.187,0.573,1.782,1.251,1.025,0.445,1.699,1.045,180.0,584.0
2015-05-11,Bishkek,Kyrgystan,74.5698,42.8746,[74.0698 42.3746 75.0698 43.3746],1.303,0.591,1.91,1.266,1.055,0.474,1.718,1.063,212.0,583.0
2015-05-12,Bishkek,Kyrgystan,74.5698,42.8746,[74.0698 42.3746 75.0698 43.3746],1.173,0.55,1.836,1.212,1.033,0.456,1.702,1.05,194.0,584.0
2015-05-13,Bishkek,Kyrgystan,74.5698,42.8746,[74.0698 42.3746 75.0698 43.3746],1.24,0.643,1.902,1.255,1.021,0.45,1.75,1.058,198.0,589.0
2015-05-14,Bishkek,Kyrgystan,74.5698,42.8746,[74.0698 42.3746 75.0698 43.3746],1.303,0.622,2.074,1.286,1.073,0.462,1.712,1.055,193.0,585.0
2015-05-15,Bishkek,Kyrgystan,74.5698,42.8746,[74.0698 42.3746 75.0698 43.3746],1.31,0.622,2.084,1.322,1.051,0.485,1.735,1.054,177.0,598.0
2015-05-16,Bishkek,Kyrgystan,74.5698,42.8746,[74.0698 42.3746 75.0698 43.3746],1.303,0.575,2.084,1.307,1.034,0.478,1.75,1.041,180.0,592.0
2015-05-17,Bishkek,Kyrgystan,74.5698,42.8746,[74.0698 42.3746 75.0698 43.3746],1.34,0.575,2.098,1.335,1.052,0.483,1.756,1.064,175.0,594.0
2015-05-18,Bishkek,Kyrgystan,74.5698,42.8746,[74.0698 42.3746 75.0698 43.3746],1.34,0.575,2.098,1.335,1.142,0.562,1.795,1.133,175.0,593.0
2015-05-19,Bishkek,Kyrgystan,74.5698,42.8746,[74.0698 42.3746 75.0698 43.3746],1.34,0.575,2.098,1.335,1.119,0.507,1.756,1.112,175.0,594.0
2015-05-20,Bishkek,Kyrgystan,74.5698,42.8746,[74.0698 42.3746 75.0698 43.3746],1.509,0.623,2.22,1.477,1.222,0.566,1.829,1.19,177.0,595.0
2015-05-21,Bishkek,Kyrgystan,74.5698,42.8746,[74.0698 42.3746 75.0698 43.3746],1.459,0.575,2.194,1.428,1.184,0.564,1.844,1.188,203.0,591.0
2015-05-22,Bishkek,Kyrgystan,74.5698,42.8746,[74.0698 42.3746 75.0698 43.3746],1.34,0.732,2.098,1.407,1.189,0.588,1.856,1.196,216.0,604.0
2015-05-23,Bishkek,Kyrgystan,74.5698,42.8746,[74.0698 42.3746 75.0698 43.3746],1.309,0.667,2.074,1.374,1.273,0.612,1.902,1.238,219.0,605.0
2015-05-24,Bishkek,Kyrgystan,74.5698,42.8746,[74.0698 42.3746 75.0698 43.3746],1.261,0.622,1.938,1.281,1.271,0.64,1.877,1.233,220.0,601.0
2015-05-25,Bishkek,Kyrgystan,74.5698,42.8746,[74.0698 42.3746 75.0698 43.3746],1.34,0.667,1.995,1.327,1.368,0.687,1.914,1.298,238.0,595.0
2015-05-26,Bishkek,Kyrgystan,74.5698,42.8746,[74.0698 42.3746 75.0698 43.3746],1.295,0.689,1.938,1.328,1.363,0.696,1.9,1.295,206.0,592.0
2015-05-27,Bishkek,Kyrgystan,74.5698,42.8746,[74.0698 42.3746 75.0698 43.3746],1.426,0.76,2.046,1.384,1.409,0.731,1.947,1.341,242.0,592.0
2015-05-28,Bishkek,Kyrgystan,74.5698,42.8746,[74.0698 42.3746 75.0698 43.3746],1.479,0.708,2.046,1.374,1.403,0.716,1.914,1.313,214.0,592.0
2015-05-29,Bishkek,Kyrgystan,74.5698,42.8746,[74.0698 42.3746 75.0698 43.3746],1.479,0.76,2.024,1.396,1.409,0.729,1.958,1.346,213.0,598.0
2015-05-30,Bishkek,Kyrgystan,74.5698,42.8746,[74.0698 42.3746 75.0698 43.3746],1.426,0.739,2.015,1.361,1.442,0.741,1.981,1.364,226.0,593.0
2015-05-31,Bishkek,Kyrgystan,74.5698,42.8746,[74.0698 42.3746 75.0698 43.3746],1.433,0.812,2.015,1.389,1.489,0.887,2.031,1.441,240.0,601.0
2015-06-01,Bishkek,Kyrgystan,74.5698,42.8746,[74.0698 42.3746 75.0698 43.3746],1.383,0.739,1.995,1.334,1.518,0.88,2.042,1.447,264.0,594.0
2015-06-02,Bishkek,Kyrgystan,74.5698,42.8746,[74.0698 42.3746 75.0698 43.3746],1.383,0.739,1.995,1.334,1.509,0.894,2.04,1.439,264.0,590.0
2015-06-03,Bishkek,Kyrgystan,74.5698,42.8746,[74.0698 42.3746 75.0698 43.3746],1.491,0.739,2.046,1.437,1.568,0.896,2.078,1.495,294.0,579.0
2015-06-04,Bishkek,Kyrgystan,74.5698,42.8746,[74.0698 42.3746 75.0698 43.3746],1.426,0.739,2.024,1.393,1.503,0.802,2.034,1.414,267.0,580.0
2015-06-05,Bishkek,Kyrgystan,74.5698,42.8746,[74.0698 42.3746 75.0698 43.3746],1.433,0.85,2.015,1.418,1.526,0.85,2.056,1.447,274.0,582.0
2015-06-06,Bishkek,Kyrgystan,74.5698,42.8746,[74.0698 42.3746 75.0698 43.3746],1.525,0.82,2.034,1.441,1.563,0.848,2.071,1.473,244.0,574.0
2015-06-07,Bishkek,Kyrgystan,74.5698,42.8746,[74.0698 42.3746 75.0698 43.3746],1.572,0.866,2.046,1.496,1.577,0.853,2.104,1.494,225.0,588.0
2015-06-08,Bishkek,Kyrgystan,74.5698,42.8746,[74.0698 42.3746 75.0698 43.3746],1.572,0.866,2.046,1.499,1.598,0.919,2.081,1.504,230.0,589.0
2015-06-09,Bishkek,Kyrgystan,74.5698,42.8746,[74.0698 42.3746 75.0698 43.3746],1.491,0.863,2.072,1.483,1.576,0.902,2.118,1.498,229.0,584.0
2015-06-10,Bishkek,Kyrgystan,74.5698,42.8746,[74.0698 42.3746 75.0698 43.3746],1.66,0.953,2.188,1.597,1.639,0.939,2.164,1.536,255.0,580.0
2015-06-11,Bishkek,Kyrgystan,74.5698,42.8746,[74.0698 42.3746 75.0698 43.3746],1.616,0.979,2.188,1.592,1.592,0.962,2.128,1.504,219.0,578.0
2015-06-12,Bishkek,Kyrgystan,74.5698,42.8746,[74.0698 42.3746 75.0698 43.3746],1.432,0.889,2.092,1.521,1.531,0.928,2.071,1.476,247.0,580.0
2015-06-13,Bishkek,Kyrgystan,74.5698,42.8746,[74.0698 42.3746 75.0698 43.3746],1.461,0.871,2.235,1.545,1.539,0.938,2.097,1.484,225.0,579.0
2015-06-14,Bishkek,Kyrgystan,74.5698,42.8746,[74.0698 42.3746 75.0698 43.3746],1.461,0.898,2.258,1.572,1.538,0.923,2.099,1.473,221.0,584.0
2015-06-15,Bishkek,Kyrgystan,74.5698,42.8746,[74.0698 42.3746 75.0698 43.3746],1.461,0.866,2.258,1.559,1.546,0.914,2.094,1.461,226.0,580.0
2015-06-16,Bishkek,Kyrgystan,74.5698,42.8746,[74.0698 42.3746 75.0698 43.3746],1.527,1.002,2.235,1.619,1.562,0.932,2.092,1.479,210.0,594.0
2015-06-17,Bishkek,Kyrgystan,74.5698,42.8746,[74.0698 42.3746 75.0698 43.3746],1.512,0.962,2.188,1.585,1.545,0.897,2.075,1.458,225.0,591.0
2015-06-18,Bishkek,Kyrgystan,74.5698,42.8746,[74.0698 42.3746 75.0698 43.3746],1.412,0.959,2.068,1.495,1.514,0.905,2.05,1.436,195.0,597.0
2015-06-19,Bishkek,Kyrgystan,74.5698,42.8746,[74.0698 42.3746 75.0698 43.3746],1.412,0.959,2.068,1.495,1.587,0.982,2.126,1.523,195.0,594.0